Hope, British Columbia

3:57 PM PST on February 17, 2018 (GMT -0800)
Hope

Weather History for CYHE - October, 2012

Change the Weather History Date:

Saturday, October 20, 2012

  Actual Average Record
Temperature  
Mean Temperature 44 °F -  
Max Temperature 48 °F 49 °F 64 °F (1998)
Min Temperature 39 °F 38 °F 37 °F (1996)
Degree Days  
Heating Degree Days 22    
Moisture  
Dew Point 39 °F    
Average Humidity 79    
Maximum Humidity 100    
Minimum Humidity 58    
Precipitation  
Precipitation 0.08 in 0.33 in - ()
Sea Level Pressure  
Sea Level Pressure 29.80 in    
Wind  
Wind Speed 9 mph ()    
Max Wind Speed 22 mph    
Max Gust Speed 37 mph    
Visibility 8.7 miles    
Events Rain    
Averages and records for this station are not official NWS values.
T = Trace of Precipitation, MM = Missing Value Source: Averaged Metar Reports

Daily Weather History Graph

Daily Weather History Graph

Search for Another Location

Airport or City:

Trip Planner

Search our weather history database for the weather conditions in past years. The results will help you decide how hot, cold, wet, or windy it might be!

Date:

Astronomy

Oct. 20, 2012 Rise Set
Actual Time 7:35 AM PDT 6:04 PM PDT
Civil Twilight 7:03 AM PDT 6:37 PM PDT
Nautical Twilight 6:26 AM PDT 7:14 PM PDT
Astronomical Twilight 5:49 AM PDT 7:50 PM PDT
Moon 1:31 PM PDT (10/20) 10:42 PM PDT (10/20)
Length of Visible Light 11h 33m
Length of Day
10h 28m
Waxing Crescent, 35% of the Moon is Illuminated
Oct 20
Waxing Crescent
Oct 21
First Quarter
Oct 29
Full
Nov 6
Last Quarter
Nov 13
New

Hourly Weather History & Observations

Time (PDT) Temp. Windchill Dew Point Humidity Pressure Visibility Wind Dir Wind Speed Gust Speed Precip Events Conditions
12:00 AM 46.4 °F 43.5 °F 42.8 °F 87% 29.72 in 9.0 mi WSW 5.8 mph - N/A   Overcast
12:16 AM 46.4 °F 42.4 °F 42.8 °F 87% 29.72 in 9.0 mi South 8.1 mph - N/A   Overcast
1:00 AM 44.6 °F 42.2 °F 42.8 °F 93% 29.72 in 9.0 mi WNW 4.6 mph - N/A   Overcast
1:01 AM 44.6 °F 41.4 °F 42.8 °F 93% 29.73 in 9.0 mi West 5.8 mph - N/A Rain Light Rain
1:07 AM 46.4 °F 43.5 °F 42.8 °F 87% 29.72 in 9.0 mi SW 5.8 mph - N/A Rain Light Rain
2:00 AM 46 °F - 42 °F 83% 29.71 in - West 10.4 mph - -  
2:00 AM 46.4 °F 41.1 °F 41.0 °F 81% 29.72 in 9.0 mi WNW 11.5 mph 23.0 mph N/A Rain Light Rain
3:00 AM 46.4 °F 40.1 °F 41.0 °F 81% 29.72 in 9.0 mi WNW 15.0 mph 25.3 mph N/A Rain Light Rain
3:23 AM 46.4 °F 40.7 °F 39.2 °F 76% 29.72 in 9.0 mi WNW 12.7 mph 24.2 mph N/A   Overcast
3:32 AM 46.4 °F 40.4 °F 39.2 °F 76% 29.73 in 9.0 mi WNW 13.8 mph 26.5 mph N/A Rain Light Rain
4:00 AM 46.4 °F 40.7 °F 39.2 °F 76% 29.73 in 9.0 mi WNW 12.7 mph 23.0 mph N/A Rain Light Rain
4:24 AM 46.4 °F 40.7 °F 39.2 °F 76% 29.73 in 9.0 mi WNW 12.7 mph 25.3 mph N/A   Overcast
4:51 AM 48.2 °F - 37.4 °F 66% 29.74 in 9.0 mi West 21.9 mph 31.1 mph N/A Rain Light Rain
5:00 AM 48 °F - 38 °F 60% 29.74 in - West 17.3 mph - -  
5:00 AM 48.2 °F - 35.6 °F 62% 29.74 in 9.0 mi West 19.6 mph 31.1 mph N/A Rain Light Rain
5:04 AM 48.2 °F - 37.4 °F 66% 29.75 in 9.0 mi West 15.0 mph 31.1 mph N/A   Overcast
6:00 AM 46.4 °F 39.2 °F 37.4 °F 71% 29.76 in 9.0 mi West 18.4 mph 36.8 mph N/A   Overcast
6:12 AM 46.4 °F 40.1 °F 37.4 °F 71% 29.76 in 9.0 mi West 15.0 mph 29.9 mph N/A Rain Light Rain
7:00 AM 46.4 °F 41.1 °F 37.4 °F 71% 29.77 in 9.0 mi WNW 11.5 mph 24.2 mph N/A Rain Light Rain
8:00 AM 45 °F - 37 °F 65% 29.77 in - West 11.5 mph - -  
8:00 AM 44.6 °F 38.8 °F 37.4 °F 76% 29.77 in 9.0 mi WNW 11.5 mph 25.3 mph N/A Rain Light Rain
8:29 AM 46.4 °F 40.7 °F 37.4 °F 71% 29.78 in 9.0 mi West 12.7 mph 19.6 mph N/A   Overcast
9:00 AM 46.4 °F 41.9 °F 35.6 °F 66% 29.79 in 9.0 mi NW 9.2 mph 20.7 mph N/A   Mostly Cloudy
10:00 AM 46.4 °F 41.5 °F 35.6 °F 66% 29.81 in 9.0 mi WNW 10.4 mph 18.4 mph N/A   Overcast
10:21 AM 46.4 °F 41.5 °F 35.6 °F 66% 29.81 in 9.0 mi West 10.4 mph - N/A Rain Light Rain
10:51 AM 46.4 °F 41.9 °F 37.4 °F 71% 29.81 in 9.0 mi West 9.2 mph 17.3 mph N/A   Overcast
11:00 AM 46 °F - 37 °F 61% 29.81 in - West 10.4 mph - -  
11:00 AM 46.4 °F 41.1 °F 37.4 °F 71% 29.81 in 9.0 mi WNW 11.5 mph 21.9 mph N/A   Overcast
11:49 AM 48.2 °F - 35.6 °F 62% 29.81 in 9.0 mi WNW 16.1 mph 25.3 mph N/A Rain Light Rain
11:58 AM 48.2 °F - 33.8 °F 58% 29.81 in 9.0 mi West 16.1 mph 25.3 mph N/A   Mostly Cloudy
12:00 PM 48.2 °F - 35.6 °F 62% 29.82 in 9.0 mi WNW 13.8 mph 25.3 mph N/A   Mostly Cloudy
12:21 PM 48.2 °F - 35.6 °F 62% 29.81 in 9.0 mi WNW 12.7 mph 25.3 mph N/A Rain Light Rain
12:32 PM 48.2 °F - 35.6 °F 62% 29.81 in 9.0 mi WNW 13.8 mph 23.0 mph N/A   Mostly Cloudy
12:51 PM 48.2 °F - 35.6 °F 62% 29.82 in 9.0 mi WNW 15.0 mph 23.0 mph N/A Rain Light Rain
1:00 PM 46.4 °F 39.2 °F 37.4 °F 71% 29.82 in 9.0 mi West 18.4 mph 25.3 mph N/A Rain Light Rain
1:23 PM 42.8 °F 37.5 °F 39.2 °F 87% 29.85 in 5.0 mi WNW 9.2 mph 18.4 mph N/A Rain Rain
1:29 PM 42.8 °F 38.6 °F 39.2 °F 87% 29.85 in 6.0 mi WSW 6.9 mph - N/A Rain Light Rain
1:37 PM 42.8 °F 37.0 °F 39.2 °F 87% 29.84 in 9.0 mi SW 10.4 mph - N/A   Mostly Cloudy
1:52 PM 42.8 °F 37.0 °F 39.2 °F 87% 29.84 in 9.0 mi SW 10.4 mph 18.4 mph N/A Rain Light Rain
2:00 PM 43 °F - 41 °F 90% 29.84 in - SW 8.1 mph - -  
2:00 PM 42.8 °F 38.0 °F 41.0 °F 93% 29.84 in 9.0 mi West 8.1 mph - N/A Rain Light Rain
2:55 PM 44.6 °F 40.7 °F 41.0 °F 87% 29.84 in 9.0 mi SW 6.9 mph - N/A   Overcast
3:00 PM 44.6 °F 41.4 °F 41.0 °F 87% 29.84 in 9.0 mi WSW 5.8 mph - N/A   Overcast
3:29 PM 44.6 °F 40.7 °F 41.0 °F 87% 29.84 in 9.0 mi WSW 6.9 mph - N/A Rain Light Rain
3:50 PM 44.6 °F 41.4 °F 41.0 °F 87% 29.84 in 9.0 mi West 5.8 mph - N/A   Overcast
3:54 PM 44.6 °F 41.4 °F 39.2 °F 81% 29.84 in 9.0 mi West 5.8 mph - N/A Rain Light Rain
4:00 PM 44.6 °F 41.4 °F 41.0 °F 87% 29.85 in 9.0 mi West 5.8 mph - N/A Rain Light Rain
4:38 PM 44.6 °F 41.4 °F 41.0 °F 87% 29.85 in 9.0 mi SW 5.8 mph - N/A   Mostly Cloudy
5:00 PM 45 °F - 41 °F 81% 29.84 in - West 3.5 mph - -  
5:00 PM 44.6 °F - 39.2 °F 81% 29.85 in 9.0 mi Variable 2.3 mph - N/A   Mostly Cloudy
6:00 PM 44.6 °F - 41.0 °F 87% 29.84 in 9.0 mi Variable 2.3 mph - N/A   Overcast
7:00 PM 41.0 °F - 39.2 °F 93% 29.84 in 9.0 mi Calm Calm - N/A   Mostly Cloudy
8:00 PM 41.0 °F - 41.0 °F 100% 29.85 in 9.0 mi Calm Calm - N/A   Mostly Cloudy
8:33 PM 41.0 °F - 39.2 °F 93% 29.85 in 9.0 mi Calm Calm - N/A Rain Light Rain
9:00 PM 41.0 °F - 41.0 °F 100% 29.85 in 9.0 mi Calm Calm - N/A Rain Light Rain
9:20 PM 41.0 °F 38.0 °F 39.2 °F 93% 29.86 in 9.0 mi West 4.6 mph - N/A Rain Light Rain
9:28 PM 41.0 °F 39.0 °F 41.0 °F 100% 29.86 in 9.0 mi WNW 3.5 mph - N/A Rain Light Rain
10:00 PM 41.0 °F 35.2 °F 37.4 °F 87% 29.86 in 5.0 mi NW 9.2 mph - N/A Rain Light Rain
10:07 PM 41.0 °F 35.8 °F 37.4 °F 87% 29.86 in 6.0 mi WNW 8.1 mph - N/A Rain Light Rain
10:08 PM 41.0 °F 36.4 °F 37.4 °F 87% 29.86 in 7.0 mi WNW 6.9 mph - N/A Rain Light Rain
11:00 PM 39 °F - 38 °F 94% 29.86 in - SW 3.5 mph - -  
11:00 PM 39.2 °F 37.0 °F 37.4 °F 93% 29.87 in 9.0 mi WSW 3.5 mph - N/A Rain Light Rain